STARLINK-34657

Last updated on Fri Aug 08 2025 00:02:05 GMT+0000 (Coordinated Universal Time)

1 64775U 25147W 25218.94860124 .00030766 00000+0 77595-3 0 9997 2 64775 53.1590 163.0644 0001554 79.2364 280.8815 15.39622945 5838
UTC large
Height (km)
Speed (km/s)
/
Latitude / Longitude
Inclination (degrees)
Orbital Period (minutes)
Azimuth
Elevation
Range (km)
Doppler Factor

Next 0 passes for location: London (51.5072 / 0.1276)

Sorry there are no passes over London.
STARLINK-34657